• Em Portugal
  • Lista de países
  • Para 7 dias
  • Temperatura da água
  • Mapas de satélite
  • Mapa do tempo
  • Widgets de tempo
  • user-avatar
    Iniciar Sessão

    Previsão horária em Dangriga

    Hoje, 20 Setembro, Quinta-feira

    Tempo Temperatura Precipitação Vento Pressão Humidade
    00:00 +27°C° 1 mm 3 m/s 757 mmHg 94%
    01:00 +27°C° 1.7 mm 4 m/s 757 mmHg 94%
    02:00 +27°C° 1.7 mm 4 m/s 757 mmHg 94%
    03:00 +27°C° 1.7 mm 4 m/s 757 mmHg 94%
    04:00 +27°C° 1.2 mm 4 m/s 757 mmHg 94%
    05:00 +27°C° 1.2 mm 4 m/s 757 mmHg 94%
    06:00 +28°C° 1.2 mm 4 m/s 757 mmHg 94%
    07:00 +29°C° 0.4 mm 4 m/s 758 mmHg 92%
    08:00 +30°C° 0.4 mm 4 m/s 758 mmHg 90%
    09:00 +32°C° 0.4 mm 4 m/s 759 mmHg 88%
    10:00 +32°C° 0.7 mm 4 m/s 759 mmHg 85%
    11:00 +33°C° 0.7 mm 4 m/s 758 mmHg 83%
    12:00 +33°C° 0.7 mm 4 m/s 758 mmHg 80%
    13:00 +33°C° 0.5 mm 5 m/s 758 mmHg 80%
    14:00 +33°C° 0.5 mm 5 m/s 757 mmHg 80%
    15:00 +33°C° 0.5 mm 5 m/s 756 mmHg 80%
    16:00 +32°C° 0.6 mm 5 m/s 757 mmHg 83%
    17:00 +30°C° 0.6 mm 6 m/s 757 mmHg 87%
    18:00 +28°C° 0.6 mm 6 m/s 757 mmHg 90%
    19:00 +28°C° 0.6 mm 6 m/s 758 mmHg 92%
    20:00 +28°C° 0.6 mm 6 m/s 758 mmHg 93%
    21:00 +28°C° 0.6 mm 6 m/s 759 mmHg 95%
    22:00 +28°C° 0.4 mm 6 m/s 759 mmHg 96%
    23:00 +27°C° 0.4 mm 6 m/s 759 mmHg 97%

    Amanhã, 21 Setembro, Sexta-feira

    Tempo Temperatura Precipitação Vento Pressão Humidade
    00:00 +27°C° 0.4 mm 5 m/s 758 mmHg 98%
    01:00 +27°C° 0.7 mm 5 m/s 758 mmHg 98%
    02:00 +27°C° 0.7 mm 5 m/s 758 mmHg 98%
    03:00 +27°C° 0.7 mm 5 m/s 758 mmHg 98%
    04:00 +27°C° 0.8 mm 5 m/s 758 mmHg 98%
    05:00 +27°C° 0.8 mm 5 m/s 758 mmHg 98%
    06:00 +27°C° 0.8 mm 5 m/s 758 mmHg 98%
    07:00 +28°C° 1 mm 5 m/s 758 mmHg 96%
    08:00 +29°C° 1 mm 5 m/s 759 mmHg 93%
    09:00 +30°C° 1 mm 5 m/s 759 mmHg 91%
    10:00 +32°C° 0.6 mm 5 m/s 759 mmHg 84%
    11:00 +33°C° 0.6 mm 5 m/s 759 mmHg 77%
    12:00 +34°C° 0.6 mm 5 m/s 759 mmHg 70%
    13:00 +34°C° 0.3 mm 5 m/s 758 mmHg 72%
    14:00 +33°C° 0.3 mm 5 m/s 757 mmHg 74%
    15:00 +33°C° 0.3 mm 5 m/s 757 mmHg 77%
    16:00 +32°C° 0.2 mm 5 m/s 757 mmHg 82%
    17:00 +30°C° 0.2 mm 5 m/s 757 mmHg 88%
    18:00 +29°C° 0.2 mm 5 m/s 757 mmHg 93%
    19:00 +28°C° 0.1 mm 5 m/s 758 mmHg 95%
    20:00 +28°C° 0.1 mm 5 m/s 758 mmHg 96%
    21:00 +28°C° 0.1 mm 5 m/s 759 mmHg 98%
    22:00 +28°C° 0.3 mm 5 m/s 759 mmHg 98%
    23:00 +27°C° 0.3 mm 4 m/s 758 mmHg 98%

    Depois de amanhã, 22 Setembro, Sábado

    Tempo Temperatura Precipitação Vento Pressão Humidade
    00:00 +27°C° 0.3 mm 4 m/s 758 mmHg 98%
    01:00 +27°C° 0.7 mm 4 m/s 758 mmHg 98%
    02:00 +27°C° 0.7 mm 4 m/s 758 mmHg 98%
    03:00 +27°C° 0.7 mm 4 m/s 757 mmHg 98%
    04:00 +27°C° 0.6 mm 4 m/s 757 mmHg 98%
    05:00 +27°C° 0.6 mm 3 m/s 757 mmHg 98%
    06:00 +27°C° 0.6 mm 3 m/s 757 mmHg 98%
    07:00 +28°C° 1.9 mm 3 m/s 758 mmHg 92%
    08:00 +30°C° 1.9 mm 3 m/s 758 mmHg 86%
    09:00 +31°C° 1.9 mm 3 m/s 759 mmHg 79%
    10:00 +33°C° 1.4 mm 3 m/s 759 mmHg 74%
    11:00 +34°C° 1.4 mm 3 m/s 758 mmHg 69%
    12:00 +35°C° 1.4 mm 3 m/s 758 mmHg 63%
    13:00 +35°C° 0.4 mm 4 m/s 757 mmHg 62%
    14:00 +35°C° 0.4 mm 4 m/s 757 mmHg 60%
    15:00 +35°C° 0.4 mm 4 m/s 756 mmHg 59%
    16:00 +33°C° 0.4 mm 4 m/s 756 mmHg 67%
    17:00 +32°C° 0.4 mm 4 m/s 756 mmHg 75%
    18:00 +29°C° 0.4 mm 4 m/s 756 mmHg 83%
    19:00 +29°C° 0.4 mm 4 m/s 757 mmHg 87%
    20:00 +28°C° 0.4 mm 4 m/s 758 mmHg 90%
    21:00 +28°C° 0.4 mm 4 m/s 758 mmHg 94%
    22:00 +27°C° 0 mm 4 m/s 758 mmHg 94%
    23:00 +27°C° 0 mm 3 m/s 758 mmHg 95%

    23 Setembro, Domingo

    Tempo Temperatura Precipitação Vento Pressão Humidade
    00:00 +27°C° 0 mm 3 m/s 757 mmHg 95%
    01:00 +27°C° 0.4 mm 3 m/s 757 mmHg 96%
    02:00 +27°C° 0.4 mm 2 m/s 757 mmHg 96%
    03:00 +27°C° 0.4 mm 2 m/s 756 mmHg 97%
    04:00 +27°C° 0.9 mm 2 m/s 757 mmHg 96%
    05:00 +27°C° 0.9 mm 2 m/s 757 mmHg 96%
    06:00 +27°C° 0.9 mm 2 m/s 757 mmHg 96%
    07:00 +28°C° 0.5 mm 2 m/s 758 mmHg 94%
    08:00 +29°C° 0.5 mm 2 m/s 758 mmHg 92%
    09:00 +29°C° 0.5 mm 2 m/s 758 mmHg 89%
    10:00 +30°C° 1.4 mm 3 m/s 758 mmHg 87%
    11:00 +30°C° 1.4 mm 3 m/s 758 mmHg 85%
    12:00 +31°C° 1.4 mm 3 m/s 757 mmHg 82%
    13:00 +31°C° 0.5 mm 3 m/s 757 mmHg 81%
    14:00 +31°C° 0.5 mm 3 m/s 756 mmHg 80%
    15:00 +31°C° 0.5 mm 3 m/s 756 mmHg 80%
    16:00 +30°C° 0.2 mm 3 m/s 756 mmHg 83%
    17:00 +29°C° 0.2 mm 3 m/s 756 mmHg 86%
    18:00 +28°C° 0.2 mm 3 m/s 757 mmHg 90%
    19:00 +28°C° 0.3 mm 4 m/s 757 mmHg 92%
    20:00 +28°C° 0.3 mm 4 m/s 758 mmHg 94%
    21:00 +27°C° 0.3 mm 4 m/s 758 mmHg 96%
    22:00 +27°C° 0.1 mm 4 m/s 758 mmHg 97%
    23:00 +27°C° 0.1 mm 4 m/s 758 mmHg 98%

    24 Setembro, Segunda-feira

    Tempo Temperatura Precipitação Vento Pressão Humidade
    00:00 +27°C° 0.1 mm 4 m/s 757 mmHg 98%
    01:00 +27°C° 0.1 mm 4 m/s 757 mmHg 98%
    02:00 +27°C° 0.1 mm 4 m/s 757 mmHg 98%
    03:00 +26°C° 0.1 mm 4 m/s 756 mmHg 98%
    04:00 +26°C° 0.2 mm 4 m/s 757 mmHg 98%
    05:00 +26°C° 0.2 mm 4 m/s 757 mmHg 98%
    06:00 +26°C° 0.2 mm 4 m/s 758 mmHg 98%
    07:00 +28°C° 0.4 mm 4 m/s 758 mmHg 96%
    08:00 +29°C° 0.4 mm 4 m/s 758 mmHg 94%
    09:00 +30°C° 0.4 mm 4 m/s 759 mmHg 91%
    10:00 +32°C° 0.1 mm 4 m/s 758 mmHg 79%
    11:00 +34°C° 0.1 mm 4 m/s 758 mmHg 66%
    12:00 +35°C° 0.1 mm 4 m/s 758 mmHg 53%
    13:00 +35°C° 0.5 mm 4 m/s 757 mmHg 54%
    14:00 +35°C° 0.5 mm 4 m/s 757 mmHg 54%
    15:00 +35°C° 0.5 mm 4 m/s 756 mmHg 54%
    16:00 +33°C° 0.1 mm 4 m/s 756 mmHg 64%
    17:00 +30°C° 0.1 mm 4 m/s 757 mmHg 73%
    18:00 +28°C° 0.1 mm 4 m/s 757 mmHg 83%
    19:00 +28°C° 0.2 mm 4 m/s 758 mmHg 87%
    20:00 +27°C° 0.2 mm 4 m/s 758 mmHg 90%
    21:00 +27°C° 0.2 mm 5 m/s 759 mmHg 94%
    22:00 +27°C° 0.2 mm 4 m/s 759 mmHg 95%
    23:00 +26°C° 0.2 mm 4 m/s 759 mmHg 95%

    25 Setembro, Terça-feira

    Tempo Temperatura Precipitação Vento Pressão Humidade
    00:00 +26°C° 0.2 mm 4 m/s 758 mmHg 96%
    01:00 +26°C° 0.4 mm 4 m/s 758 mmHg 97%
    02:00 +26°C° 0.4 mm 4 m/s 758 mmHg 97%
    03:00 +26°C° 0.4 mm 4 m/s 757 mmHg 97%
    04:00 +26°C° 0.7 mm 4 m/s 758 mmHg 98%
    05:00 +26°C° 0.7 mm 4 m/s 758 mmHg 98%
    06:00 +26°C° 0.7 mm 4 m/s 758 mmHg 98%
    07:00 +27°C° 1.2 mm 4 m/s 759 mmHg 95%
    08:00 +28°C° 1.2 mm 4 m/s 759 mmHg 92%
    09:00 +29°C° 1.2 mm 4 m/s 759 mmHg 89%
    10:00 +30°C° 0.6 mm 4 m/s 759 mmHg 84%
    11:00 +32°C° 0.6 mm 4 m/s 759 mmHg 78%
    12:00 +33°C° 0.6 mm 4 m/s 758 mmHg 73%
    13:00 +33°C° 0.3 mm 4 m/s 758 mmHg 74%
    14:00 +33°C° 0.3 mm 4 m/s 757 mmHg 74%
    15:00 +33°C° 0.3 mm 4 m/s 756 mmHg 75%
    16:00 +30°C° 0.3 mm 4 m/s 757 mmHg 80%
    17:00 +29°C° 0.3 mm 4 m/s 757 mmHg 85%
    18:00 +28°C° 0.3 mm 4 m/s 758 mmHg 91%
    19:00 +27°C° 0.2 mm 4 m/s 758 mmHg 92%
    20:00 +27°C° 0.2 mm 5 m/s 758 mmHg 94%
    21:00 +27°C° 0.2 mm 5 m/s 759 mmHg 96%
    22:00 +27°C° 0.3 mm 5 m/s 759 mmHg 96%
    23:00 +27°C° 0.3 mm 5 m/s 758 mmHg 96%
    Mostrar mais